Location: ČR
(50.0000°N, 15.0000°E)
Time: 21:10:29
(UTC+00:00)

Vanguard 3 - Pass Details

Date: 21 October 2021
Orbit: 508 x 3260 km, 33.4° (Epoch: 04 December)

Event Time Altitude Azimuth Distance (km) Brightness Sun altitude
Rises 17:16:39 0° 228° (SW) 3,774 11.4 -13.5°
Reaches altitude 10° 17:19:18 10° 216° (SW) 3,131 10.7 -13.9°
Maximum altitude 17:25:56 28° 161° (SSE) 2,737 9.6 -15.0°
Enters shadow 17:33:34 15° 117° (ESE) 4,274 10.3 -16.2°
Drops below altitude 10° 17:36:08 10° 110° (ESE) 4,945 - -16.6°
Sets 17:41:40 0° 101° (ESE) 6,411 - -17.5°
